| time (UTC) | temp F | wind direction | speed MPH | gust MPH | rain 1hr in | rain 24hr in | rain mn in | humidity % | barometer mb |
| 20260505060051 | 58 | 315 | 2.0 | 11.0 | 0.00 | 0.02 | 0.01 | 68 | 1019.7 |
| 20260505054550 | 58 | 306 | 2.0 | 9.0 | 0.00 | 0.10 | 0.01 | 67 | 1019.6 |
| 20260505053049 | 58 | 253 | 4.0 | 9.0 | 0.00 | 0.10 | 0.01 | 67 | 1019.6 |
| 20260505051547 | 58 | 353 | 3.0 | 10.0 | 0.00 | 0.10 | 0.01 | 66 | 1019.5 |
| 20260505050122 | 58 | 299 | 2.0 | 11.0 | 0.00 | 0.10 | 0.01 | 66 | 1019.4 |
| 20260505041555 | 58 | 267 | 5.0 | 12.0 | 0.00 | 0.10 | 0.01 | 67 | 1019.1 |
| 20260505040054 | 58 | 334 | 1.0 | 11.0 | 0.00 | 0.10 | 0.01 | 67 | 1019.2 |
| 20260505034542 | 58 | 306 | 3.0 | 14.0 | 0.00 | 0.11 | 0.01 | 66 | 1019.2 |
| 20260505033045 | 58 | 244 | 5.0 | 14.0 | 0.00 | 0.11 | 0.01 | 68 | 1019.4 |
| 20260505031544 | 58 | 274 | 6.0 | 11.0 | 0.00 | 0.11 | 0.01 | 67 | 1019.5 |
| 20260505030040 | 58 | 251 | 6.0 | 16.0 | 0.00 | 0.11 | 0.01 | 67 | 1019.5 |
| 20260505024534 | 58 | 353 | 4.0 | 15.0 | 0.00 | 0.11 | 0.01 | 68 | 1019.5 |
| 20260505023039 | 57 | 237 | 7.0 | 14.0 | 0.00 | 0.11 | 0.01 | 67 | 1019.8 |
| 20260505021534 | 57 | 284 | 3.0 | 11.0 | 0.00 | 0.11 | 0.01 | 68 | 1020.1 |
| 20260505020035 | 57 | 243 | 4.0 | 8.0 | 0.00 | 0.11 | 0.01 | 69 | 1020.5 |
| 20260505014527 | 57 | 172 | 4.0 | 12.0 | 0.00 | 0.20 | 0.01 | 70 | 1020.5 |
| 20260505013026 | 56 | 241 | 4.0 | 11.0 | 0.00 | 0.20 | 0.01 | 69 | 1020.6 |
| 20260505011529 | 56 | 302 | 5.0 | 12.0 | 0.00 | 0.20 | 0.01 | 70 | 1020.6 |
| 20260505010023 | 56 | 331 | 4.0 | 11.0 | 0.00 | 0.20 | 0.01 | 70 | 1020.6 |
| 20260505004531 | 55 | 261 | 3.0 | 11.0 | 0.00 | 0.23 | 0.01 | 73 | 1020.7 |
| 20260505003114 | 54 | 305 | 4.0 | 12.0 | 0.00 | 0.23 | 0.01 | 75 | 1020.6 |
| 20260505001510 | 54 | 262 | 3.0 | 11.0 | 0.00 | 0.23 | 0.01 | 78 | 1020.4 |
| 20260505000010 | 54 | 347 | 5.0 | 10.0 | 0.00 | 0.23 | 0.01 | 78 | 1020.4 |
| 20260504234504 | 53 | 275 | 5.0 | 13.0 | 0.00 | 0.23 | 0.01 | 77 | 1020.1 |
| 20260504233002 | 53 | 326 | 5.0 | 10.0 | 0.00 | 0.23 | 0.01 | 80 | 1020.1 |
| 20260504231558 | 52 | 226 | 4.0 | 11.0 | 0.00 | 0.23 | 0.01 | 81 | 1019.9 |
| 20260504230156 | 52 | 265 | 2.0 | 11.0 | 0.00 | 0.23 | 0.01 | 82 | 1020.0 |
| 20260504224608 | 51 | 216 | 3.0 | 8.0 | 0.00 | 0.37 | 0.01 | 83 | 1020.2 |
| 20260504223050 | 51 | 264 | 0.0 | 5.0 | 0.00 | 0.37 | 0.01 | 85 | 1020.3 |
| 20260504221543 | 50 | 257 | 3.0 | 6.0 | 0.00 | 0.37 | 0.01 | 85 | 1020.2 |
| 20260504220040 | 50 | 259 | 1.0 | 6.0 | 0.00 | 0.37 | 0.01 | 86 | 1019.9 |